This demonstration page uses our WeatherBlox Daily Observations layout. Learn more.

Left ArrowRight Arrow

Hourly Observations for May 27, 2022

Temp ( °F °C ) Dew Point ( °F °C ) Humidity (%) Winds ( mph kmh ) Pressure ( in mb ) Visibility ( mi km ) Precip ( " mm )
12:53 am 00:53 Clear 69 20.6 48 8.9 47 47 S 8 13 29.85 1011 10 16 0.00 0.00
1:53 am 01:53 Mostly Cloudy 68 20 49 9.4 51 51 SSE 7 11 29.87 1011 10 16 0.00 0.00
2:53 am 02:53 Clear 64 17.8 50 10 60 60 E 3 6 29.88 1012 10 16 0.00 0.00
3:53 am 03:53 Clear 63 17.2 51 10.6 65 65 Calm 29.90 1012 10 16 0.00 0.00
4:53 am 04:53 Clear 64 17.8 51 10.6 63 63 S 7 11 29.91 1013 10 16 0.00 0.00
5:53 am 05:53 Sunny 63 17.2 52 11.1 68 68 SW 3 6 29.92 1013 10 16 0.00 0.00
6:53 am 06:53 Sunny 62 16.7 52 11.1 70 70 S 6 9 29.93 1014 10 16 0.00 0.00
7:53 am 07:53 Sunny 64 17.8 52 11.1 65 65 SSE 3 6 29.95 1014 10 16 0.00 0.00
8:53 am 08:53 Sunny 66 18.9 52 11.1 61 61 SSW 7 11 29.95 1014 10 16 0.00 0.00
9:53 am 09:53 Sunny 69 20.6 51 10.6 53 53 VRB 6 9 29.94 1014 10 16 0.00 0.00
10:53 am 10:53 Sunny 73 22.8 51 10.6 46 46 SE 7 11 29.93 1014 10 16 0.00 0.00
11:53 am 11:53 Sunny 76 24.4 51 10.6 42 42 SE 6 9 29.92 1013 10 16 0.00 0.00
12:53 pm 12:53 Sunny 78 25.6 49 9.4 36 36 S 9 15 29.91 1013 10 16 0.00 0.00
1:53 pm 13:53 Mostly Sunny 78 25.6 48 8.9 35 35 SSE 7 11 29.89 1012 10 16 0.00 0.00
2:53 pm 14:53 Partly Cloudy 80 26.7 49 9.4 34 34 SE 8 13 29.87 1011 10 16 0.00 0.00
3:53 pm 15:53 Partly Cloudy 81 27.2 46 7.8 29 29 ESE 9 15 29.85 1011 10 16 0.00 0.00
4:53 pm 16:53 Mostly Sunny 81 27.2 50 10 34 34 SSE 14 22 29.83 1010 10 16 0.00 0.00
5:53 pm 17:53 Partly Cloudy 80 26.7 51 10.6 37 37 S 7 11 29.82 1010 10 16 0.00 0.00
6:53 pm 18:53 Cloudy 77 25 57 13.9 50 50 S 10 17 29.82 1010 9 14 0.00 0.00
7:53 pm 19:53 Cloudy 70 21.1 56 13.3 61 61 VRB 3 6 29.82 1010 10 16 0.02 0.51
8:53 pm 20:53 Cloudy 70 21.1 55 12.8 59 59 E 3 6 29.81 1010 10 16 0.00 0.00
9:53 pm 21:53 Cloudy 68 20 57 13.9 68 68 NE 3 6 29.84 1010 10 16 0.00 0.00
10:53 pm 22:53 Mostly Clear 66 18.9 59 15 78 78 Calm 29.84 1010 10 16 0.00 0.00
11:53 pm 23:53 Clear 66 18.9 57 13.9 73 73 SW 3 6 29.84 1010 10 16 0.00 0.00

Powered by AerisWeather